1506261600.11,28421,17.13,74012.3,7.43,-24.21,-22.37,0,*71
1506261601.34,28422,17.13,74008.5,7.41,-24.25,-22.37,0,*74
1506261602.59,28423,17.13,74010.0,7.41,-23.65,-21.83,0,*7A
1506261603.81,28424,17.13,74010.3,7.37,-23.39,-21.83,0,*75
1506261605.04,28425,17.13,74008.8,7.37,-23.43,-21.53,0,*74
1506261606.29,28426,17.13,74008.8,7.35,-23.59,-21.33,0,*78
1506261607.5,28427,17.13,74010.8,7.33,-23.59,-21.09,0,*76
1506261608.72,28428,17.13,74008.5,7.31,-23.79,-21.13,0,*72
1506261609.93,28429,17.13,74008.3,7.29,-23.43,-20.43,0,*77
1506261611.16,28430,17.13,74012.0,7.27,-22.63,-19.91,0,*77
1506261612.38,28431,17.13,74010.5,7.25,-21.83,-19.47,0,*72
1506261613.58,28432,17.13,74006.8,7.21,-21.43,-19.51,0,*7E
1506261614.81,28433,17.13,74010.8,7.21,-20.89,-18.89,0,*7C
1506261616.06,28434,17.13,74008.3,7.19,-20.99,-17.87,0,*70
1506261617.34,28435,17.13,74010.3,7.19,-21.53,-17.11,0,*79
1506261618.57,28436,17.13,74008.5,7.17,-22.63,-17.45,0,*75
1506261619.77,28437,17.13,74010.5,7.17,-23.43,-18.17,0,*7F
1506261621.02,28438,17.13,74010.8,7.15,-23.53,-18.21,0,*76
1506261622.24,28439,17.13,74010.8,7.13,-23.69,-18.73,0,*7F
1506261623.46,28440,17.13,74010.0,7.13,-23.49,-19.03,0,*75
1506261624.66,28441,17.13,74010.0,7.13,-23.39,-20.05,0,*7F
1506261625.91,28442,17.13,74010.0,7.11,-23.29,-20.43,0,*7D
1506261627.11,28443,17.13,74008.8,7.09,-22.87,-20.59,0,*7B
1506261628.32,28444,17.19,74014.0,7.09,-22.37,-20.59,0,*77
1506261629.55,28445,17.13,74014.0,7.09,-21.93,-20.19,0,*7F
1506261630.8,28446,17.13,74008.0,7.09,-21.87,-20.19,0,*79
1506261632.03,28447,17.13,74014.5,7.07,-21.43,-20.05,0,*73
1506261633.3,28448,17.13,74010.5,7.03,-20.53,-19.31,0,*75
1506261634.52,28449,17.13,74008.8,7.05,-19.85,-18.79,0,*7E
1506261635.75,28450,17.13,74008.3,7.03,-19.17,-17.87,0,*75
1506261637.02,28451,17.13,74010.5,7.03,-19.13,-17.07,0,*78
1506261638.27,28452,17.13,74010.0,7.03,-19.95,-17.17,0,*74
1506261639.56,28453,17.13,74010.3,7.03,-20.49,-17.07,0,*7F
1506261640.81,28454,17.13,74010.8,7.03,-21.13,-17.03,0,*72
1506261642.09,28455,17.13,74012.0,6.99,-22.17,-17.41,0,*70
1506261643.32,28456,17.13,74008.8,7.03,-23.09,-18.41,0,*70
1506261644.57,28457,17.13,74008.3,7.03,-23.99,-19.71,0,*7A
1506261645.8,28458,17.13,74008.8,6.99,-24.35,-20.73,0,*7E
1506261647.05,28459,17.13,74008.3,7.03,-24.35,-21.97,0,*76
1506261648.32,28460,17.13,74010.0,6.99,-24.35,-23.23,0,*73
1506261649.55,28461,17.13,74010.3,6.99,-22.97,-22.93,0,*76
1506261650.8,28462,17.13,74010.3,6.97,-21.53,-21.83,0,*72
1506261652.02,28463,17.19,74012.0,6.97,-21.13,-21.57,0,*7E
1506261653.24,28464,17.13,74008.5,6.97,-20.63,-20.79,0,*72
1506261654.46,28465,17.13,74008.3,6.97,-20.43,-20.15,0,*7B
1506261655.69,28466,17.13,74008.8,6.99,-19.75,-19.37,0,*73
1506261656.91,28467,17.13,74008.8,6.99,-19.47,-18.83,0,*7D
1506261658.14,28468,17.13,74010.5,6.99,-19.95,-18.73,0,*72
1506261659.38,28469,17.13,74010.8,7.05,-19.85,-17.93,0,*77
1506261660.63,28470,17.13,74008.8,7.05,-20.19,-17.79,0,*74
1506261661.85,28471,17.13,74012.3,7.07,-21.13,-18.17,0,*7B
1506261663.04,28472,17.19,74014.0,7.09,-21.93,-18.79,0,*76
1506261664.27,28473,17.13,74008.3,7.09,-22.31,-19.51,0,*77
1506261665.47,28474,17.13,74008.0,7.09,-22.37,-19.71,0,*74
1506261666.7,28475,17.13,74008.8,7.11,-23.09,-20.93,0,*76
1506261667.97,28476,17.13,74008.8,7.11,-23.23,-21.67,0,*77
1506261669.24,28477,17.13,74010.8,7.11,-22.73,-21.67,0,*72
1506261670.47,28478,17.13,74010.8,7.11,-22.93,-22.03,0,*72
1506261671.72,28479,17.13,74010.5,7.15,-23.39,-22.21,0,*76
1506261672.95,28480,17.13,74008.8,7.11,-23.69,-22.41,0,*77
1506261674.21,28481,17.13,74006.5,7.11,-23.59,-22.31,0,*72
1506261675.43,28482,17.13,74008.0,7.11,-23.59,-22.83,0,*78
1506261676.66,28483,17.13,74008.8,7.11,-23.43,-22.93,0,*73
1506261677.89,28484,17.13,74008.3,7.09,-23.59,-23.19,0,*75
1506261679.12,28485,17.13,74008.3,7.09,-23.59,-23.03,0,*7F
1506261680.37,28486,17.13,74012.3,7.07,-23.85,-22.97,0,*7F
1506261681.6,28487,17.13,74008.0,7.09,-24.61,-23.19,0,*7A
1506261682.8,28488,17.19,74014.0,7.09,-25.39,-23.43,0,*76
1506261684.02,28489,17.19,74014.8,7.07,-26.23,-24.47,0,*72
1506261685.25,28490,17.13,74010.0,7.07,-26.07,-24.31,0,*7D
1506261686.5,28491,17.13,74010.8,7.03,-26.33,-24.35,0,*7B
1506261687.72,28492,17.19,74012.0,7.05,-26.45,-24.15,0,*7D
1506261688.95,28493,17.13,74010.5,7.03,-27.29,-24.35,0,*73
1506261690.18,28494,17.19,74014.0,7.03,-28.69,-25.35,0,*7E
1506261691.4,28495,17.13,74008.8,6.97,-28.79,-25.39,0,*7E
1506261692.63,28496,17.13,74010.5,6.97,-27.61,-24.47,0,*73
1506261693.85,28497,17.13,74008.8,6.97,-27.03,-23.99,0,*72
1506261695.04,28498,17.13,74008.8,6.97,-26.61,-23.79,0,*76
1506261696.26,28499,17.13,74010.3,6.97,-26.13,-23.79,0,*72
1506261697.47,28500,17.13,74008.3,6.97,-26.03,-23.75,0,*7E
1506261698.71,28501,17.13,74010.8,6.99,-26.55,-24.35,0,*71
1506261699.96,28502,17.13,74008.0,6.99,-26.55,-24.57,0,*76
1506261701.23,28503,17.13,74008.0,6.99,-26.55,-24.83,0,*7E
1506261702.46,28504,17.19,74012.0,7.03,-26.49,-24.93,0,*77
1506261703.68,28505,17.13,74008.3,7.03,-26.49,-24.93,0,*76
1506261704.93,28506,17.19,74014.3,7.03,-27.83,-26.45,0,*7B
1506261706.18,28507,17.13,74010.5,7.03,-26.61,-25.29,0,*7E
1506261707.45,28508,17.13,74006.5,7.03,-26.77,-25.61,0,*7A
1506261708.71,28509,17.13,74008.5,7.05,-26.77,-25.75,0,*78
1506261709.99,28510,17.13,74004.0,7.03,-26.81,-25.97,0,*73
1506261711.2,28511,17.13,74004.5,7.05,-26.49,-25.65,0,*7D
1506261712.45,28512,17.13,74008.8,7.03,-27.13,-26.29,0,*7D
1506261713.68,28513,17.19,74010.5,7.03,-27.29,-26.49,0,*73
1506261714.89,28514,17.19,74010.8,7.05,-26.03,-25.49,0,*78
1506261716.15,28515,17.13,74008.5,7.03,-25.97,-25.49,0,*71
1506261717.39,28516,17.19,74014.0,7.05,-26.49,-25.75,0,*7B
1506261718.59,28517,17.13,74008.5,7.05,-27.29,-26.49,0,*71
1506261719.84,28518,17.19,74010.3,7.07,-27.39,-26.61,0,*77
1506261721.07,28519,17.13,74010.3,7.05,-27.93,-26.97,0,*7D
1506261722.32,28520,17.19,74012.5,7.03,-27.51,-26.81,0,*78
1506261723.55,28521,17.19,74010.5,7.03,-27.93,-27.03,0,*7C
1506261724.8,28522,17.13,74010.5,7.03,-27.99,-27.29,0,*7D
1506261726.05,28523,17.13,74008.0,7.03,-27.83,-27.13,0,*7E
1506261727.3,28524,17.13,74010.5,7.03,-27.93,-27.19,0,*72
1506261728.53,28525,17.13,74006.5,6.99,-28.69,-27.71,0,*75
1506261729.75,28526,17.13,74008.5,6.99,-28.69,-27.55,0,*70
1506261731.0,28527,17.13,74010.5,6.97,-28.09,-26.71,0,*7E
1506261732.2,28528,17.19,74010.5,6.97,-27.89,-26.39,0,*7A
1506261733.42,28529,17.13,74008.5,6.97,-28.05,-26.45,0,*7B
1506261734.64,28530,17.19,74010.3,6.95,-27.77,-26.23,0,*7B
1506261735.89,28531,17.13,74006.0,6.95,-27.71,-26.13,0,*7F
1506261737.13,28532,17.13,74010.3,6.93,-27.61,-25.49,0,*77
1506261738.33,28533,17.19,74010.3,6.93,-27.77,-25.35,0,*7A
1506261739.56,28534,17.19,74010.3,6.93,-28.09,-25.61,0,*7A
1506261740.83,28535,17.19,74012.0,6.91,-28.25,-25.65,0,*73
1506261742.08,28536,17.19,74010.3,6.91,-27.83,-25.35,0,*76
1506261743.36,28537,17.13,74008.5,6.91,-27.99,-25.75,0,*78
1506261744.62,28538,17.19,74012.0,6.91,-27.77,-25.75,0,*77
1506261745.88,28539,17.13,74008.3,6.89,-27.23,-25.71,0,*7A
1506261747.14,28540,17.13,74008.8,6.91,-27.45,-26.07,0,*7F
1506261748.39,28541,17.13,74008.8,6.89,-27.83,-26.55,0,*7A
1506261749.62,28542,17.19,74008.8,6.91,-27.67,-26.49,0,*77
1506261750.87,28543,17.19,74010.8,6.89,-27.23,-26.13,0,*70
1506261752.13,28544,17.13,74008.5,6.91,-27.13,-26.13,0,*7D
1506261753.35,28545,17.13,74010.0,6.89,-27.03,-26.17,0,*70
1506261754.6,28546,17.19,74010.3,6.91,-27.19,-26.49,0,*7A
1506261755.83,28547,17.19,74008.5,6.89,-27.13,-26.33,0,*75
1506261757.08,28548,17.13,74010.3,6.89,-27.35,-26.55,0,*7E
1506261758.33,28549,17.19,74010.3,6.89,-27.35,-26.81,0,*76
1506261759.55,28550,17.13,74008.8,6.91,-27.13,-26.49,0,*77
1506261760.77,28551,17.19,74008.0,6.89,-27.19,-26.65,0,*7B
1506261761.97,28552,17.19,74008.5,6.89,-26.87,-26.23,0,*7C
1506261763.21,28553,17.19,74010.0,6.89,-26.65,-26.13,0,*72
1506261764.49,28554,17.13,74010.3,6.91,-26.33,-25.81,0,*77
1506261765.78,28555,17.13,74010.0,6.91,-26.29,-25.75,0,*76
1506261767.07,28556,17.19,74008.5,6.91,-26.29,-25.75,0,*75
1506261768.3,28557,17.13,74008.8,6.93,-27.29,-26.81,0,*7F
1506261769.54,28558,17.19,74008.5,6.93,-27.19,-26.77,0,*7A
1506261770.79,28559,17.13,74006.8,6.93,-27.35,-26.81,0,*7C
1506261772.04,28560,17.13,74008.0,6.93,-26.81,-26.33,0,*71
1506261773.24,28561,17.19,74008.8,6.93,-27.07,-26.49,0,*72
1506261774.49,28562,17.13,74010.0,6.93,-27.35,-26.81,0,*74
1506261775.76,28563,17.13,74006.8,6.95,-27.23,-26.93,0,*77
1506261777.0,28564,17.19,74008.5,6.93,-27.19,-26.93,0,*7F
1506261778.22,28565,17.19,74010.5,6.93,-27.19,-26.65,0,*77
1506261779.47,28566,17.19,74010.0,6.93,-27.45,-27.19,0,*77
1506261780.69,28567,17.19,74008.0,6.93,-28.09,-27.77,0,*79
1506261781.95,28568,17.19,74010.0,6.91,-28.63,-28.15,0,*73
1506261783.18,28569,17.19,74012.0,6.89,-29.17,-28.85,0,*70
1506261784.41,28570,17.19,74010.8,6.89,-29.45,-29.17,0,*75
1506261785.66,28571,17.19,74010.3,6.87,-29.39,-29.07,0,*70
1506261786.89,28572,17.19,74010.8,6.83,-29.45,-29.13,0,*79
1506261788.12,28573,17.19,74010.8,6.83,-28.53,-27.99,0,*72
1506261789.37,28574,17.19,74008.5,6.81,-28.15,-27.61,0,*72
1506261790.58,28575,17.19,74010.3,6.81,-28.15,-27.77,0,*74
1506261791.86,28576,17.19,74010.0,6.81,-28.79,-28.25,0,*75
1506261793.09,28577,17.19,74010.3,6.79,-28.91,-28.53,0,*74
1506261794.28,28578,17.19,74008.5,6.79,-29.07,-28.53,0,*75
1506261795.51,28579,17.13,74010.3,6.75,-29.39,-29.23,0,*73
1506261796.73,28580,17.19,74010.0,6.73,-29.61,-29.23,0,*7E
1506261797.98,28581,17.19,74006.8,6.71,-29.29,-28.79,0,*7F
1506261799.23,28582,17.19,74006.5,6.69,-28.85,-28.43,0,*7B
1506261800.44,28583,17.13,74006.8,6.67,-28.69,-28.31,0,*73
1506261801.7,28584,17.19,74008.5,6.67,-29.01,-28.63,0,*7C
1506261802.93,28585,17.19,74010.0,6.67,-29.57,-29.17,0,*7C
1506261804.16,28586,17.19,74012.3,6.63,-29.39,-28.97,0,*7A
1506261805.41,28587,17.19,74008.3,6.65,-29.61,-29.39,0,*75
1506261806.64,28588,17.19,74008.3,6.63,-29.07,-28.59,0,*7B
1506261807.9,28589,17.19,74014.8,6.59,-28.09,-27.61,0,*78
1506261809.16,28590,17.19,74008.5,6.61,-28.09,-27.67,0,*7D
1506261810.41,28591,17.19,74010.8,6.61,-27.77,-27.39,0,*71
1506261811.64,28592,17.19,74012.3,6.61,-27.93,-27.55,0,*72
1506261812.89,28593,17.19,74010.8,6.61,-27.39,-27.07,0,*74
1506261814.14,28594,17.19,74008.5,6.61,-27.55,-26.97,0,*71
1506261815.37,28595,17.19,74008.3,6.63,-28.21,-27.77,0,*71
1506261816.63,28596,17.19,74010.0,6.61,-27.13,-26.77,0,*7F
1506261817.84,28597,17.19,74008.8,6.63,-26.49,-26.03,0,*71
1506261819.09,28598,17.19,74014.0,6.63,-26.93,-26.71,0,*7C
1506261820.31,28599,17.19,74008.5,6.63,-27.07,-26.71,0,*71
1506261821.55,28600,17.19,74010.8,6.65,-26.61,-26.03,0,*70
1506261822.77,28601,17.19,74008.8,6.65,-26.87,-26.39,0,*70
1506261824.02,28602,17.19,74010.0,6.65,-27.03,-26.55,0,*74
1506261825.25,28603,17.19,74010.5,6.67,-27.35,-26.87,0,*7D
1506261826.49,28604,17.19,74008.0,6.67,-27.19,-26.71,0,*7D
1506261827.74,28605,17.19,74014.3,6.69,-26.61,-26.13,0,*78
1506261829.0,28606,17.19,74008.0,6.69,-26.81,-26.39,0,*7D
1506261830.23,28607,17.13,74008.8,6.67,-27.03,-26.55,0,*73
1506261831.46,28608,17.19,74010.3,6.71,-26.45,-25.97,0,*75
1506261832.67,28609,17.19,74010.8,6.71,-27.07,-26.61,0,*79
1506261833.9,28610,17.19,74010.8,6.71,-26.65,-26.29,0,*78
1506261835.13,28611,17.19,74010.5,6.71,-26.77,-26.23,0,*70
1506261836.4,28612,17.19,74012.3,6.73,-27.19,-26.71,0,*7F
1506261837.65,28613,17.19,74008.3,6.71,-27.39,-26.97,0,*76
1506261838.91,28614,17.19,74010.5,6.73,-27.19,-26.71,0,*79
1506261840.14,28615,17.19,74010.5,6.73,-27.03,-26.45,0,*74
1506261841.41,28616,17.19,74008.5,6.73,-27.23,-26.77,0,*74
1506261842.64,28617,17.19,74008.3,6.73,-27.03,-26.61,0,*70
1506261843.9,28618,17.19,74010.5,6.73,-27.19,-26.71,0,*75
1506261845.13,28619,17.19,74010.0,6.73,-26.87,-26.39,0,*7E
1506261846.38,28620,17.19,74008.8,6.73,-26.87,-26.17,0,*78
1506261847.63,28621,17.19,74012.3,6.75,-26.77,-26.17,0,*70
1506261848.86,28622,17.19,74010.3,6.75,-26.55,-26.03,0,*76
1506261850.08,28623,17.19,74008.8,6.79,-26.87,-26.13,0,*75
1506261851.33,28624,17.19,74008.8,6.79,-26.71,-26.17,0,*7F
1506261852.55,28625,17.19,74008.8,6.79,-27.29,-26.71,0,*72
1506261853.81,28626,17.19,74008.3,6.75,-28.25,-27.61,0,*7E
1506261855.01,28627,17.19,74008.8,6.75,-28.53,-27.89,0,*78
1506261856.27,28628,17.19,74008.5,6.75,-28.75,-28.05,0,*78
1506261857.49,28629,17.19,74012.8,6.73,-28.97,-27.93,0,*73
1506261858.74,28630,17.19,74008.3,6.71,-28.59,-27.23,0,*70
1506261859.94,28631,17.19,74012.3,6.71,-27.77,-25.91,0,*79
1506261861.18,28632,17.19,74010.0,6.71,-28.25,-25.61,0,*7D
1506261862.38,28633,17.19,74008.8,6.71,-27.51,-24.35,0,*70
1506261863.63,28634,17.19,74008.8,6.71,-27.61,-24.11,0,*72
1506261864.9,28635,17.19,74010.3,6.69,-27.45,-23.53,0,*7D
1506261866.18,28636,17.19,74008.5,6.69,-27.39,-23.49,0,*7E
1506261867.4,28637,17.19,74010.0,6.69,-27.07,-23.13,0,*7D
1506261868.65,28638,17.19,74008.5,6.69,-27.13,-23.33,0,*75
1506261869.9,28639,17.19,74010.3,6.69,-27.13,-23.53,0,*72
1506261871.15,28640,17.19,74010.5,6.71,-26.97,-23.53,0,*78
1506261872.39,28641,17.19,74012.0,6.71,-27.23,-23.99,0,*71
1506261873.6,28642,17.19,74008.3,6.71,-27.77,-24.97,0,*7A
1506261874.8,28643,17.19,74010.0,6.71,-27.07,-24.61,0,*75
1506261876.0,28644,17.19,74010.0,6.71,-27.13,-24.77,0,*70
1506261877.23,28645,17.19,74014.0,6.71,-26.77,-24.51,0,*76
1506261878.48,28646,17.19,74010.3,6.71,-26.77,-24.67,0,*70
1506261879.74,28647,17.19,74010.3,6.71,-26.81,-24.83,0,*72
1506261880.99,28648,17.19,74010.3,6.73,-26.93,-24.93,0,*7D
1506261882.25,28649,17.19,74010.5,6.73,-27.45,-25.61,0,*7A
1506261883.51,28650,17.19,74010.0,6.73,-27.77,-25.75,0,*76
1506261884.76,28651,17.19,74010.3,6.73,-27.89,-25.75,0,*76
1506261885.96,28652,17.19,74010.5,6.71,-27.89,-25.39,0,*7F
1506261887.2,28653,17.19,74012.3,6.71,-28.25,-25.65,0,*7E
1506261888.42,28654,17.19,74010.8,6.73,-27.77,-25.19,0,*78
1506261889.67,28655,17.19,74010.0,6.69,-27.67,-24.83,0,*71
1506261890.89,28656,17.19,74008.0,6.69,-27.51,-24.35,0,*7A
1506261892.12,28657,17.19,74008.8,6.69,-27.67,-24.31,0,*7A
1506261893.38,28658,17.19,74008.8,6.67,-28.05,-24.41,0,*77
1506261894.63,28659,17.19,74008.3,6.69,-28.31,-24.83,0,*71
1506261895.88,28660,17.19,74010.5,6.67,-28.47,-25.03,0,*7D
1506261897.1,28661,17.19,74010.0,6.67,-28.47,-25.13,0,*7D
1506261898.36,28662,17.19,74010.5,6.67,-28.63,-25.29,0,*71
1506261899.62,28663,17.19,74010.0,6.65,-28.91,-25.91,0,*7C
1506261900.87,28664,17.19,74008.8,6.65,-29.07,-26.33,0,*7E
1506261902.1,28665,17.19,74012.8,6.59,-29.13,-26.61,0,*72
1506261903.33,28666,17.19,74012.3,6.59,-28.31,-25.81,0,*7D
1506261904.56,28667,17.19,74014.3,6.59,-28.63,-26.23,0,*70
1506261905.79,28668,17.19,74014.5,6.59,-28.31,-25.45,0,*7B
1506261907.03,28669,17.19,74014.0,6.59,-27.83,-24.67,0,*7D
1506261908.32,28670,17.19,74012.0,6.57,-27.99,-24.21,0,*72
1506261909.6,28671,17.19,74008.8,6.57,-27.61,-23.33,0,*70
1506261910.88,28672,17.19,74010.8,6.57,-27.45,-22.77,0,*74
1506261912.11,28673,17.19,74008.3,6.57,-27.51,-22.27,0,*75
1506261913.36,28674,17.19,74012.0,6.57,-27.83,-22.11,0,*78
1506261914.58,28675,17.19,74008.8,6.53,-27.89,-21.63,0,*71
1506261915.86,28676,17.19,74008.3,6.53,-28.05,-21.57,0,*7E
1506261917.11,28677,17.19,74008.5,6.53,-27.93,-21.33,0,*7D
1506261918.34,28678,17.19,74010.8,6.51,-28.37,-21.39,0,*7B
1506261919.6,28679,17.19,74008.8,6.51,-28.21,-20.73,0,*72
1506261920.84,28680,17.19,74010.0,6.49,-27.93,-20.49,0,*72
1506261922.09,28681,17.19,74012.0,6.49,-27.39,-19.85,0,*79
1506261923.29,28682,17.19,74010.8,6.45,-27.29,-19.47,0,*79
1506261924.54,28683,17.19,74008.0,6.45,-26.81,-18.89,0,*78
1506261925.73,28684,17.19,74010.5,6.45,-27.13,-18.49,0,*79
1506261926.98,28685,17.19,74012.8,6.43,-26.39,-17.25,0,*72
1506261928.2,28686,17.19,74010.5,6.41,-25.23,-16.23,0,*7C
1506261929.46,28687,17.19,74010.8,6.41,-24.71,-15.89,0,*78
1506261930.71,28688,17.19,74010.0,6.41,-24.21,-15.49,0,*7E
1506261931.97,28689,17.19,74012.5,6.39,-23.75,-14.79,0,*74
1506261933.2,28690,17.19,74012.5,6.39,-23.43,-14.61,0,*70
1506261934.45,28691,17.19,74008.0,6.39,-23.65,-14.61,0,*75
1506261935.69,28692,17.19,74014.3,6.39,-24.31,-15.07,0,*71
1506261936.95,28693,17.19,74010.3,6.35,-24.83,-15.15,0,*76
1506261938.17,28694,17.19,74012.3,6.37,-25.81,-15.99,0,*74
1506261939.43,28695,17.19,74010.8,6.35,-26.33,-16.45,0,*7F
1506261940.69,28696,17.19,74008.3,6.31,-26.81,-17.35,0,*77
1506261941.93,28697,17.19,74012.5,6.31,-27.07,-17.87,0,*70
1506261943.15,28698,17.19,74008.0,6.29,-27.45,-18.49,0,*7D
1506261944.4,28699,17.19,74008.0,6.31,-27.71,-19.23,0,*7F
1506261945.63,28700,17.19,74008.8,6.27,-28.15,-19.99,0,*75
1506261946.89,28701,17.19,74008.8,6.27,-28.47,-20.73,0,*7D
1506261948.15,28702,17.19,74012.0,6.25,-28.63,-21.03,0,*7C
1506261949.38,28703,17.19,74008.8,6.25,-29.01,-21.63,0,*7E
1506261950.67,28704,17.19,74008.0,6.23,-29.17,-21.87,0,*72
1506261951.93,28705,17.19,74012.3,6.19,-29.35,-21.97,0,*7B
1506261953.17,28706,17.19,74010.3,6.17,-29.23,-22.03,0,*7F
1506261954.37,28707,17.19,74008.5,6.15,-29.45,-22.37,0,*7B
1506261955.6,28708,17.19,74010.8,6.15,-29.45,-22.73,0,*74
1506261956.81,28709,17.19,74010.3,6.15,-29.45,-22.83,0,*7A
1506261958.08,28710,17.19,74008.8,6.09,-29.39,-23.13,0,*7C
1506261959.35,28711,17.19,74010.3,6.09,-29.39,-23.43,0,*78
1506261960.59,28712,17.19,74012.3,6.07,-28.75,-22.93,0,*70
1506261961.87,28713,17.19,74010.0,6.09,-28.75,-23.23,0,*75
1506261963.12,28714,17.19,74010.5,6.05,-29.13,-23.89,0,*7F
1506261964.38,28715,17.19,74010.0,6.05,-28.91,-23.89,0,*75
1506261965.63,28716,17.19,74010.3,6.05,-29.07,-23.95,0,*75
1506261966.86,28717,17.19,74012.3,6.01,-28.97,-23.79,0,*7A
1506261968.09,28718,17.19,74012.5,6.03,-28.69,-23.65,0,*7B
1506261969.32,28719,17.19,74012.5,5.99,-28.63,-23.89,0,*72
1506261970.53,28720,17.19,74010.3,5.99,-28.53,-24.51,0,*79
1506261971.79,28721,17.19,74014.3,6.01,-29.01,-25.49,0,*74
1506261973.02,28722,17.19,74012.5,5.97,-29.07,-25.23,0,*71
1506261974.31,28723,17.19,74010.8,5.97,-28.79,-25.03,0,*7A
1506261975.54,28724,17.19,74008.8,5.95,-28.75,-25.35,0,*76
1506261976.77,28725,17.19,74010.3,5.95,-27.07,-23.29,0,*76
1506261978.0,28726,17.19,74008.3,5.97,-26.87,-22.67,0,*75
1506261979.26,28727,17.19,74010.8,5.97,-27.61,-23.75,0,*7F
1506261980.52,28728,17.19,74010.3,5.97,-27.51,-24.21,0,*75
1506261981.77,28729,17.19,74010.5,5.97,-27.35,-24.47,0,*76
1506261983.0,28730,17.19,74008.0,5.99,-27.19,-24.57,0,*7F
1506261984.22,28731,17.19,74014.3,5.99,-27.13,-24.83,0,*7D
1506261985.45,28732,17.19,74012.5,5.99,-26.87,-24.83,0,*72
1506261986.69,28733,17.19,74010.3,6.01,-26.65,-24.93,0,*7C
1506261987.96,28734,17.19,74014.5,6.03,-26.97,-25.75,0,*7D
1506261989.19,28735,17.19,74008.8,6.03,-26.65,-25.29,0,*78
1506261990.43,28736,17.19,74012.0,6.03,-26.39,-25.29,0,*72
1506261991.65,28737,17.19,74014.0,6.05,-26.23,-25.23,0,*74
1506261992.92,28738,17.19,74010.5,6.07,-26.55,-25.71,0,*7F
1506261994.16,28739,17.19,74010.0,6.07,-26.33,-25.65,0,*7B
1506261995.43,28740,17.19,74012.3,6.09,-26.17,-25.49,0,*73
1506261996.69,28741,17.19,74012.5,6.13,-26.29,-25.61,0,*7E
1506261997.92,28742,17.19,74012.8,6.13,-26.65,-25.91,0,*7A
1506261999.19,28743,17.19,74014.8,6.15,-26.97,-26.33,0,*7B
1506262000.47,28744,17.19,74012.0,6.17,-27.61,-26.93,0,*7C
1506262001.74,28745,17.19,74010.8,6.17,-27.61,-27.03,0,*75
1506262002.97,28746,17.19,74012.5,6.17,-27.55,-26.87,0,*7C
1506262004.22,28747,17.19,74010.0,6.15,-27.45,-26.77,0,*71
1506262005.46,28748,17.19,74012.5,6.17,-27.89,-27.29,0,*76
1506262006.66,28749,17.19,74008.5,6.19,-27.89,-27.51,0,*76
1506262007.92,28750,17.19,74014.3,6.15,-27.61,-27.45,0,*71
1506262009.15,28751,17.19,74012.5,6.15,-27.93,-27.61,0,*7B
1506262010.35,28752,17.19,74014.3,6.15,-28.31,-27.93,0,*72
1506262011.59,28753,17.19,74010.8,6.09,-28.85,-28.53,0,*72
1506262012.85,28754,17.19,74014.5,6.09,-29.39,-28.69,0,*7A
1506262014.12,28755,17.19,74006.0,6.05,-29.23,-28.63,0,*76
1506262015.37,28756,17.19,74008.0,6.05,-29.13,-28.37,0,*77
1506262016.65,28757,17.19,74012.5,6.05,-29.13,-28.05,0,*77
1506262017.91,28758,17.19,74014.3,6.01,-27.83,-26.39,0,*7A
1506262019.14,28759,17.19,74012.8,6.01,-26.39,-25.65,0,*71
1506262020.36,28760,17.19,74012.8,5.99,-26.03,-25.35,0,*75
1506262021.6,28761,17.19,74014.8,5.97,-24.61,-23.43,0,*7B
1506262022.81,28762,17.19,74010.8,5.95,-24.57,-22.97,0,*77
1506262024.07,28763,17.19,74014.0,5.93,-24.41,-22.41,0,*7C
1506262025.33,28764,17.19,74010.8,5.93,-23.29,-21.39,0,*7E
1506262026.59,28765,17.19,74014.0,5.93,-23.19,-21.13,0,*74
1506262027.84,28766,17.19,74010.5,5.89,-23.39,-21.27,0,*79
1506262029.04,28767,17.19,74010.8,5.91,-23.79,-21.73,0,*74
1506262030.29,28768,17.19,74012.3,5.89,-25.19,-22.73,0,*71
1506262031.51,28769,17.19,74008.0,5.89,-26.45,-23.39,0,*75
1506262032.74,28770,17.19,74010.8,5.85,-27.67,-24.77,0,*7D
1506262034.0,28771,17.19,74012.8,5.81,-28.47,-25.81,0,*7D
1506262035.27,28772,17.19,74014.3,5.81,-29.29,-26.71,0,*7B
1506262036.49,28773,17.19,74014.8,5.79,-29.13,-26.39,0,*78
1506262037.74,28774,17.19,74014.5,5.79,-28.59,-25.29,0,*72
1506262038.98,28775,17.19,74010.0,5.77,-28.21,-24.47,0,*7B
1506262040.25,28776,17.19,74010.0,5.77,-27.99,-23.69,0,*7F
1506262041.52,28777,17.19,74014.8,5.77,-27.99,-23.23,0,*70
1506262042.75,28778,17.19,74010.0,5.75,-28.21,-22.93,0,*7B
1506262044.01,28779,17.19,74010.8,5.75,-26.81,-21.23,0,*76
1506262045.22,28780,17.19,74012.0,5.75,-26.71,-21.09,0,*77
1506262046.49,28781,17.19,74012.0,5.73,-26.93,-21.33,0,*75
1506262047.77,28782,17.19,74008.8,5.73,-26.33,-20.53,0,*7B
1506262048.98,28783,17.19,74010.5,5.73,-25.19,-19.71,0,*7B
1506262050.2,28784,17.19,74012.0,5.71,-24.31,-19.23,0,*72
1506262051.43,28785,17.19,74008.8,5.71,-24.47,-19.27,0,*76
1506262052.65,28786,17.19,74008.3,5.71,-24.97,-19.57,0,*7F
1506262053.87,28787,17.19,74012.8,5.71,-25.55,-19.71,0,*75
1506262055.12,28788,17.19,74010.8,5.69,-25.55,-19.71,0,*73
1506262056.36,28789,17.19,74006.0,5.69,-25.39,-19.85,0,*73
1506262057.57,28790,17.19,74012.5,5.69,-25.39,-20.29,0,*77
1506262058.82,28791,17.19,74010.0,5.69,-25.75,-21.09,0,*7D
1506262060.04,28792,17.25,74014.0,5.67,-26.77,-22.27,0,*7E
1506262061.24,28793,17.19,74010.5,5.67,-27.03,-22.93,0,*72
1506262062.49,28794,17.19,74012.0,5.67,-27.45,-23.49,0,*71
1506262063.7,28795,17.19,74014.0,5.67,-27.99,-24.51,0,*7F
1506262064.94,28796,17.19,74008.3,5.67,-27.99,-24.67,0,*79
1506262066.16,28797,17.19,74008.8,5.61,-27.89,-24.51,0,*7A
1506262067.4,28798,17.19,74010.0,5.61,-27.99,-24.57,0,*72
1506262068.65,28799,17.19,74008.3,5.61,-28.21,-24.51,0,*79
1506262069.87,28800,17.19,74010.5,5.59,-28.43,-24.61,0,*7A
1506262071.15,28801,17.19,74012.3,5.61,-28.05,-24.21,0,*76
1506262072.39,28802,17.19,74010.8,5.59,-28.09,-23.99,0,*76
1506262073.59,28803,17.19,74014.3,5.59,-27.71,-23.75,0,*75
1506262074.81,28804,17.19,74010.5,5.61,-27.51,-23.59,0,*75
1506262076.04,28805,17.19,74012.3,5.61,-27.55,-24.11,0,*7B
1506262077.31,28806,17.19,74012.0,5.61,-27.99,-24.67,0,*79
1506262078.5,28807,17.19,74014.0,5.63,-27.89,-24.93,0,*70
1506262079.75,28808,17.19,74012.3,5.61,-27.99,-25.39,0,*7D
1506262081.0,28809,17.19,74012.3,5.59,-28.09,-25.55,0,*7B
1506262082.22,28810,17.19,74010.5,5.59,-28.47,-25.91,0,*71
1506262083.47,28811,17.19,74010.8,5.59,-28.47,-25.97,0,*76
1506262084.74,28812,17.19,74014.0,5.57,-28.79,-26.55,0,*7B
1506262085.98,28813,17.19,74014.5,5.57,-28.63,-26.45,0,*70
1506262087.21,28814,17.19,74010.8,5.59,-28.05,-25.87,0,*74
1506262088.48,28815,17.19,74010.3,5.57,-27.39,-25.45,0,*75
1506262089.73,28816,17.19,74014.5,5.57,-26.93,-25.23,0,*77
1506262090.95,28817,17.19,74010.0,5.59,-27.45,-25.87,0,*7C
1506262092.15,28818,17.19,74008.3,5.59,-27.89,-26.45,0,*7E
1506262093.35,28819,17.19,74010.0,5.59,-28.15,-27.13,0,*77
1506262094.6,28820,17.19,74008.3,5.57,-29.07,-28.25,0,*7B
1506262095.84,28821,17.19,74010.5,5.59,-29.29,-28.75,0,*7D
1506262097.12,28822,17.19,74010.0,5.57,-29.35,-28.79,0,*71
1506262098.39,28823,17.19,74010.3,5.57,-29.35,-28.79,0,*70
1506262099.64,28824,17.19,74010.5,5.51,-29.17,-28.69,0,*70
1506262100.86,28825,17.19,74010.3,5.51,-29.07,-28.69,0,*70
1506262102.11,28826,17.19,74010.3,5.51,-28.75,-28.37,0,*7C
1506262103.36,28827,17.19,74008.8,5.51,-27.99,-27.67,0,*7A